Weather in Wajima

Japan     37°22′41″N   136°48′41″E
temp.,
°C
wind,
m/s
gust,
m/s
humid.,
%
clouds,
%
prec.,
mm/h
press.,
hPa
HPBL,
m
27 january, wed
wed2700:00+10s1296100 13.3 1012157
03:00+11wnw8988100 20.4 1013653
06:00+11wnw8975100 0.3 10151028
09:00+9nw101078100 0.3 1018879
12:00+7n101071100 0.0 1019814
15:00+6n101165100 0.0 1019826
18:00+6nne9106367 0.0 1021973
21:00+6nne886133 0.0 10231250
28 january, thu
thu2800:00+6ne9963100 0.0 10211231
03:00+5ne101066100 0.0 10201252
06:00+5ene101066100 0.0 10191287
09:00+6ene121272100 0.0 10171126
12:00+6e121375100 0.0 1012895
15:00+7ese91073100 0.0 1007620
18:00+9ssw8137497 0.0 10041281
21:00+10sw15206697 0.2 9991944
29 january, fri
fri2900:00+6wsw21258236 3.7 9981789
03:00+3wsw21247151 4.6 9992375
06:00+2w182199100 1.6 9991439
09:00+2w192274100 2.6 10012342
12:00+2wnw192368100 0.8 10032558
15:00+1wnw212369100 1.3 10062631
18:00+1wnw202275100 0.8 10102402
21:000wnw192179100 2.1 10132357
30 january, sat
sat3000:000wnw171985100 0.7 10152096
03:000wnw161885100 1.4 10171970
06:000wnw151780100 0.8 10212045
09:00+1wnw131482100 1.4 10241553
12:00+2wnw101177100 0.5 10251445
15:00+3wsw81074100 0.9 10251433
18:00+4wsw111379100 0.4 10251220
21:00+6wsw121370100 1.5 10251635
31 january, sun
sun3100:00+7wsw121468100 0.5 10251697
03:00+8w13166896 1.4 10241716
06:00+9w14166576 0.6 10231668
09:00+9wsw13156777 1.7 10241552
12:00+10w13146797 1.1 10231565
15:00+10wsw12146754 2.3 10231535
18:00+10wsw1113660 0.9 10241633
21:00+10wsw12146510 1.6 10241817